BSAT-4a

operational
NORAD ID: 42951 Int'l Des: 2017-059 Owner: BSAT Country: J
HEOCIRCULARGSOGEO

关于 BSAT-4a

正在加载描述...

实时位置

正在加载3D地球...

即将过境

高度历史

Altitude vs Time

uPlot chart will show altitude changes over time

两行轨道根数

1 42951U 17059B 26063.65300059 .00000000 00000-0 00000-0 0 9998
2 42951 0.0147 355.1893 0004198 31.0965 121.0646 1.00269111 30751
Epoch: Mar 4, 2026 • Age: 20 hours

当前状态

高度 35804.2 km
速度 3.07 km/s
星下点 -0.01°S, 109.88°E
发射日期 Sep 29, 2017
运行时间 8.4 years
类型 other

技术详情

分类 Payload
质量 3520.00 kg
干质量 1800.00 kg
总质量 3520.00 kg
长度 5.10 m
直径 2.70 m
跨度 24.70 m
形状 Box + 2 panels
制造商 SSL
平台类型 LS-1300
阶段状态 In Orbit
所有者/国家 BSAT/J

大型星座

Loading constellations...